Carmi, IL

9:32 PM CDT on May 23, 2017 (GMT -0500)
Carmi Municipal

Weather History for KCUL - March, 2014

Change the Weather History Date:

Wednesday, March 12, 2014

  Actual Average (KEHR) Record (KEHR)
Temperature  
Mean Temperature 48 °F -  
Max Temperature 65 °F 56 °F 80 °F (1967)
Min Temperature 31 °F 38 °F 12 °F (1948)
Degree Days  
Heating Degree Days 17    
Moisture  
Dew Point 38 °F    
Average Humidity 81    
Maximum Humidity 95    
Minimum Humidity 57    
Precipitation  
Precipitation 0.04 in - - ()
Sea Level Pressure  
Sea Level Pressure 29.81 in    
Wind  
Wind Speed 19 mph (NW)    
Max Wind Speed 30 mph    
Max Gust Speed 44 mph    
Visibility 9 miles    
Events Rain    
Averages and records for this station are not official NWS values.
T = Trace of Precipitation, MM = Missing Value Source: NWS Daily Summary

Daily Weather History Graph

Daily Weather History Graph

Search for Another Location

Airport or City:

Trip Planner

Search our weather history database for the weather conditions in past years. The results will help you decide how hot, cold, wet, or windy it might be!

Date:

Astronomy

Mar. 12, 2014 Rise Set
Actual Time 7:08 AM CDT 6:56 PM CDT
Civil Twilight 6:41 AM CDT 7:23 PM CDT
Nautical Twilight 6:11 AM CDT 7:53 PM CDT
Astronomical Twilight 5:40 AM CDT 8:24 PM CDT
Moon 3:29 PM CDT (3/12) 4:36 AM CDT (3/12)
Length of Visible Light 12h 41m
Length of Day
11h 48m
Waxing Gibbous, 85% of the Moon is Illuminated
Mar 12
Waxing Gibbous
Mar 16
Full
Mar 23
Last Quarter
Mar 30
New
Apr 7
First Quarter

Hourly Weather History & Observations

Time (CDT) Temp. Windchill Dew Point Humidity Pressure Visibility Wind Dir Wind Speed Gust Speed Precip Events Conditions
12:15 AM 63.0 °F - 56.5 °F 79% 29.46 in 10.0 mi South 12.7 mph - N/A   Mostly Cloudy
12:35 AM 61.5 °F - 56.3 °F 83% 29.45 in 10.0 mi South 11.5 mph - N/A   Scattered Clouds
12:55 AM 64.4 °F - 57.2 °F 77% 29.45 in 10.0 mi SSW 12.7 mph 20.7 mph N/A   Clear
1:15 AM 64.8 °F - 57.6 °F 77% 29.44 in 10.0 mi SSW 18.4 mph - N/A   Mostly Cloudy
1:35 AM 65.3 °F - 58.1 °F 77% 29.43 in 10.0 mi SSW 18.4 mph 26.5 mph N/A   Mostly Cloudy
1:55 AM 65.3 °F - 58.3 °F 78% 29.42 in 10.0 mi SSW 16.1 mph 23.0 mph N/A   Mostly Cloudy
2:15 AM 65.3 °F - 58.5 °F 78% 29.41 in 10.0 mi SSW 23.0 mph 29.9 mph N/A   Mostly Cloudy
2:35 AM 65.3 °F - 59.0 °F 80% 29.40 in 10.0 mi SSW 19.6 mph 28.8 mph N/A   Overcast
2:55 AM 65.5 °F - 59.0 °F 80% 29.39 in 10.0 mi SSW 21.9 mph 31.1 mph N/A   Overcast
3:15 AM 65.1 °F - 59.0 °F 81% 29.37 in 10.0 mi SSW 23.0 mph 31.1 mph N/A   Overcast
3:35 AM 65.1 °F - 59.0 °F 81% 29.36 in 10.0 mi SSW 24.2 mph 32.2 mph N/A   Overcast
3:55 AM 57.0 °F - 52.5 °F 85% 29.41 in 4.0 mi WNW 29.9 mph 43.7 mph 0.03 in Rain Light Rain
4:15 AM 47.5 °F - 45.7 °F 93% 29.42 in 4.0 mi WNW 18.4 mph 25.3 mph N/A Rain Light Rain
4:35 AM 45.5 °F 36.0 °F 44.1 °F 95% 29.45 in 5.0 mi WNW 29.9 mph 39.1 mph 0.01 in   Overcast
4:55 AM 44.1 °F 34.8 °F 42.4 °F 94% 29.48 in 10.0 mi WNW 25.3 mph 32.2 mph 0.01 in   Overcast
5:15 AM 43.7 °F 35.7 °F 41.9 °F 93% 29.50 in 10.0 mi NW 18.4 mph 25.3 mph N/A   Overcast
5:35 AM 43.0 °F 33.5 °F 41.0 °F 93% 29.53 in 10.0 mi WNW 24.2 mph 32.2 mph N/A   Overcast
5:55 AM 42.1 °F 32.3 °F 39.4 °F 90% 29.56 in 10.0 mi WNW 24.2 mph 36.8 mph N/A   Overcast
6:15 AM 41.0 °F 31.6 °F 39.0 °F 93% 29.58 in 5.0 mi NW 20.7 mph 33.4 mph N/A   Overcast
6:35 AM 41.0 °F 31.1 °F 38.3 °F 90% 29.60 in 10.0 mi NW 23.0 mph 36.8 mph N/A   Overcast
6:55 AM 41.0 °F 31.1 °F 38.7 °F 91% 29.62 in 5.0 mi NW 23.0 mph 33.4 mph N/A   Overcast
7:15 AM 40.5 °F 29.7 °F 37.9 °F 91% 29.64 in 7.0 mi NW 26.5 mph 41.4 mph N/A   Overcast
7:35 AM 39.6 °F 28.5 °F 37.6 °F 93% 29.65 in 5.0 mi NW 26.5 mph 40.3 mph N/A   Overcast
7:55 AM 38.8 °F 27.3 °F 37.4 °F 95% 29.67 in 7.0 mi NW 27.6 mph 35.7 mph N/A   Light Drizzle
8:15 AM 39.2 °F 28.7 °F 36.5 °F 90% 29.69 in 10.0 mi NW 23.0 mph 35.7 mph N/A   Overcast
8:35 AM 39.2 °F 27.6 °F 36.5 °F 90% 29.71 in 10.0 mi NNW 28.8 mph 36.8 mph N/A   Overcast
8:55 AM 39.4 °F 28.1 °F 36.0 °F 88% 29.74 in 10.0 mi NNW 27.6 mph 38.0 mph N/A   Overcast
9:15 AM 39.2 °F 27.4 °F 35.2 °F 86% 29.76 in 10.0 mi NNW 29.9 mph 35.7 mph N/A   Overcast
9:35 AM 39.4 °F 27.9 °F 34.9 °F 84% 29.78 in 10.0 mi NNW 28.8 mph 35.7 mph N/A   Overcast
9:55 AM 39.6 °F 28.7 °F 34.9 °F 83% 29.80 in 10.0 mi NNW 25.3 mph 36.8 mph N/A   Overcast
10:15 AM 39.6 °F 30.6 °F 35.4 °F 85% 29.81 in 10.0 mi NW 17.3 mph 34.5 mph N/A   Overcast
10:35 AM 39.4 °F 28.1 °F 34.5 °F 83% 29.83 in 10.0 mi NW 27.6 mph 34.5 mph N/A   Overcast
10:55 AM 39.4 °F 29.5 °F 35.2 °F 85% 29.84 in 10.0 mi NW 20.7 mph 27.6 mph N/A   Overcast
11:15 AM 40.1 °F 30.2 °F 34.7 °F 81% 29.86 in 10.0 mi NW 21.9 mph 28.8 mph N/A   Overcast
11:35 AM 39.4 °F 28.5 °F 34.3 °F 82% 29.87 in 10.0 mi NW 25.3 mph 32.2 mph N/A   Overcast
11:55 AM 40.1 °F 30.5 °F 34.3 °F 80% 29.89 in 10.0 mi NW 20.7 mph 25.3 mph N/A   Overcast
12:15 PM 40.3 °F 29.7 °F 33.8 °F 78% 29.90 in 10.0 mi NNW 25.3 mph 31.1 mph N/A   Overcast
12:35 PM 41.5 °F 32.4 °F 34.3 °F 76% 29.91 in 10.0 mi NNW 20.7 mph 27.6 mph N/A   Overcast
12:55 PM 41.0 °F 32.2 °F 33.8 °F 76% 29.92 in 10.0 mi NW 18.4 mph 26.5 mph N/A   Overcast
1:15 PM 41.2 °F 30.9 °F 34.0 °F 76% 29.93 in 10.0 mi NW 25.3 mph 31.1 mph N/A   Overcast
1:35 PM 42.8 °F 33.3 °F 32.7 °F 68% 29.94 in 10.0 mi NW 24.2 mph 28.8 mph N/A   Mostly Cloudy
1:55 PM 42.6 °F 34.9 °F 33.1 °F 69% 29.94 in 10.0 mi NW 16.1 mph 26.5 mph N/A   Mostly Cloudy
2:15 PM 42.8 °F 34.3 °F 32.4 °F 67% 29.94 in 10.0 mi NW 19.6 mph 26.5 mph N/A   Overcast
2:35 PM 43.3 °F 34.5 °F 31.5 °F 63% 29.95 in 10.0 mi NNW 21.9 mph 26.5 mph N/A   Overcast
2:55 PM 43.5 °F 35.0 °F 31.8 °F 63% 29.96 in 10.0 mi NW 20.7 mph 26.5 mph N/A   Overcast
3:15 PM 43.7 °F 35.4 °F 31.6 °F 63% 29.96 in 10.0 mi NNW 19.6 mph 24.2 mph N/A   Overcast
3:35 PM 45.3 °F 37.3 °F 30.9 °F 57% 29.97 in 10.0 mi NW 20.7 mph 26.5 mph N/A   Mostly Cloudy
3:55 PM 43.5 °F 35.8 °F 30.2 °F 59% 29.98 in 10.0 mi WNW 17.3 mph - N/A   Mostly Cloudy
4:15 PM 39.6 °F 29.5 °F 33.4 °F 79% 30.00 in 5.0 mi NW 21.9 mph 32.2 mph N/A Rain Light Rain
4:35 PM 39.4 °F 31.8 °F 36.0 °F 88% 30.00 in 10.0 mi WNW 12.7 mph - N/A   Mostly Cloudy
4:55 PM 42.6 °F 34.9 °F 35.2 °F 75% 30.00 in 10.0 mi NW 16.1 mph - N/A   Scattered Clouds
5:15 PM 38.5 °F 29.6 °F 34.3 °F 85% 30.02 in 10.0 mi NNW 16.1 mph 26.5 mph N/A   Mostly Cloudy
5:35 PM 38.5 °F 31.1 °F 34.7 °F 86% 30.02 in 10.0 mi NNW 11.5 mph - N/A   Scattered Clouds
5:55 PM 38.8 °F 30.8 °F 33.4 °F 81% 30.02 in 10.0 mi NNW 13.8 mph 17.3 mph N/A   Clear
6:15 PM 39.4 °F 30.4 °F 32.5 °F 76% 30.03 in 10.0 mi NW 17.3 mph 23.0 mph N/A   Scattered Clouds
6:35 PM 39.2 °F 30.5 °F 32.0 °F 75% 30.04 in 10.0 mi NNW 16.1 mph - N/A   Mostly Cloudy
6:55 PM 36.5 °F 27.4 °F 32.0 °F 84% 30.06 in 10.0 mi NW 15.0 mph - N/A   Scattered Clouds
7:15 PM 36.5 °F 28.7 °F 32.0 °F 84% 30.06 in 10.0 mi NW 11.5 mph - N/A   Clear
7:35 PM 35.8 °F 28.8 °F 32.0 °F 86% 30.07 in 10.0 mi NW 9.2 mph - N/A   Scattered Clouds
7:55 PM 36.0 °F 29.0 °F 32.0 °F 86% 30.08 in 10.0 mi WNW 9.2 mph - N/A   Scattered Clouds
8:15 PM 36.5 °F 27.8 °F 29.3 °F 75% 30.09 in 10.0 mi WNW 13.8 mph 20.7 mph N/A   Scattered Clouds
8:35 PM 36.0 °F 26.7 °F 28.4 °F 74% 30.09 in 10.0 mi NW 15.0 mph - N/A   Clear
8:55 PM 35.6 °F 27.1 °F 27.7 °F 73% 30.11 in 10.0 mi NW 12.7 mph - N/A   Clear
9:15 PM 35.1 °F 26.4 °F 27.3 °F 73% 30.11 in 10.0 mi NW 12.7 mph - N/A   Clear
9:35 PM 34.7 °F 26.4 °F 27.3 °F 74% 30.12 in 10.0 mi NW 11.5 mph - N/A   Clear
9:55 PM 34.3 °F 27.0 °F 26.8 °F 74% 30.12 in 10.0 mi NW 9.2 mph - N/A   Clear
10:15 PM 33.8 °F 25.8 °F 26.6 °F 75% 30.12 in 10.0 mi NW 10.4 mph - N/A   Clear
10:35 PM 33.4 °F 26.6 °F 26.4 °F 75% 30.13 in 10.0 mi NW 8.1 mph - N/A   Clear
10:55 PM 33.1 °F 26.9 °F 26.4 °F 77% 30.13 in 10.0 mi NW 6.9 mph - N/A   Clear
11:15 PM 32.0 °F 27.5 °F 26.8 °F 81% 30.13 in 10.0 mi North 4.6 mph - N/A   Clear
11:35 PM 31.3 °F 25.6 °F 27.5 °F 86% 30.13 in 10.0 mi NNW 5.8 mph - N/A   Clear
11:55 PM 31.3 °F 26.6 °F 28.4 °F 89% 30.13 in 10.0 mi NNW 4.6 mph - N/A   Clear